TimeCDT,TemperatureF,Dew PointF,Humidity,Sea Level PressureIn,VisibilityMPH,Wind Direction,Wind SpeedMPH,Gust SpeedMPH,PrecipitationIn,Events,Conditions,WindDirDegrees,DateUTC
12:53 AM,63.0,60.1,90,29.90,9.0,Calm,Calm,-,0.02,Rain,Light Rain,0,2013-05-09 05:53:00
1:32 AM,63.0,60.1,90,29.92,10.0,South,4.6,-,0.00,Thunderstorm,Thunderstorm,180,2013-05-09 06:32:00
1:53 AM,64.0,55.9,75,29.89,10.0,West,11.5,20.7,0.00,Rain,Light Rain,270,2013-05-09 06:53:00
2:53 AM,61.0,57.0,87,29.89,10.0,West,3.5,-,0.00,,Overcast,280,2013-05-09 07:53:00
3:53 AM,60.1,57.0,90,29.86,10.0,SE,4.6,-,0.00,Rain,Light Rain,130,2013-05-09 08:53:00
4:53 AM,60.1,57.0,90,29.85,10.0,SSW,4.6,-,0.01,,Clear,210,2013-05-09 09:53:00
5:53 AM,59.0,57.0,93,29.84,10.0,South,4.6,-,N/A,,Scattered Clouds,180,2013-05-09 10:53:00
6:53 AM,59.0,57.0,93,29.86,10.0,Calm,Calm,-,N/A,,Partly Cloudy,0,2013-05-09 11:53:00
7:53 AM,60.1,57.9,93,29.88,9.0,NW,3.5,-,N/A,,Clear,310,2013-05-09 12:53:00
8:53 AM,62.1,57.9,86,29.88,10.0,SSW,4.6,-,N/A,,Clear,210,2013-05-09 13:53:00
9:53 AM,66.0,55.9,70,29.89,10.0,WSW,8.1,-,N/A,,Clear,250,2013-05-09 14:53:00
10:53 AM,66.9,55.9,68,29.90,10.0,WSW,6.9,-,N/A,,Clear,250,2013-05-09 15:53:00
11:53 AM,69.8,55.4,60,29.91,10.0,WSW,6.9,-,N/A,,Mostly Cloudy,240,2013-05-09 16:53:00
12:53 PM,69.1,55.9,63,29.90,10.0,West,8.1,-,N/A,,Overcast,270,2013-05-09 17:53:00
1:53 PM,71.1,59.0,66,29.90,10.0,WNW,9.2,-,N/A,,Overcast,290,2013-05-09 18:53:00
2:53 PM,71.1,59.0,66,29.88,10.0,NW,9.2,19.6,N/A,,Overcast,310,2013-05-09 19:53:00
3:53 PM,73.9,60.1,62,29.88,10.0,NW,12.7,-,N/A,,Mostly Cloudy,310,2013-05-09 20:53:00
4:53 PM,73.0,57.9,59,29.89,10.0,NW,10.4,-,N/A,,Partly Cloudy,320,2013-05-09 21:53:00
5:53 PM,71.1,57.0,61,29.89,10.0,NW,9.2,-,N/A,,Mostly Cloudy,320,2013-05-09 22:53:00
6:53 PM,71.1,57.0,61,29.89,10.0,NW,11.5,-,N/A,,Partly Cloudy,320,2013-05-09 23:53:00
7:53 PM,66.9,55.9,68,29.91,10.0,NW,6.9,-,N/A,,Clear,310,2013-05-10 00:53:00
8:53 PM,64.4,57.2,77,29.93,10.0,NW,8.1,-,N/A,,Clear,320,2013-05-10 01:53:00
9:53 PM,61.0,55.9,83,29.92,10.0,NW,5.8,-,N/A,,Clear,310,2013-05-10 02:53:00
10:53 PM,61.0,55.9,83,29.94,10.0,WNW,5.8,-,N/A,,Clear,300,2013-05-10 03:53:00
11:53 PM,59.0,55.0,87,29.96,8.0,West,4.6,-,N/A,,Clear,270,2013-05-10 04:53:00